This is the latest recevied weather packets stored in our database for station/object KG2V. If no packets are shown the sender has not sent any weather packets the latest 10 day(s).
| Time | Temp. | Humidity | Pressure | Rain* | Wind** | Luminosity | Snow |
|---|---|---|---|---|---|---|---|
| 1778247320 | 5.56° C | 89% | 1008.7 hPa | 0 mm | - | 195 W/m² | - |
| 1778247018 | 5.56° C | 90% | 1008.8 hPa | 0 mm | - | 133 W/m² | - |
| 1778246715 | 5.56° C | 90% | 1008.8 hPa | 0 mm | - | 164 W/m² | - |
| 1778246412 | 5.56° C | 91% | 1008.7 hPa | 0 mm | - | 144 W/m² | - |
| 1778246107 | 5.56° C | 91% | 1008.8 hPa | 0 mm | - | 114 W/m² | - |
| 1778245804 | 5° C | 92% | 1008.6 hPa | 0 mm | - | 149 W/m² | - |
| 1778245501 | 5° C | 92% | 1008.6 hPa | 0 mm | - | 120 W/m² | - |
| 1778245196 | 5.56° C | 92% | 1008.7 hPa | 0 mm | - | 110 W/m² | - |
| 1778244893 | 5° C | 93% | 1008.7 hPa | 0 mm | - | 126 W/m² | - |
| 1778244591 | 5° C | 94% | 1008.5 hPa | 0 mm | - | 127 W/m² | - |
| 1778244289 | 5° C | 94% | 1008.6 hPa | 1.78 mm | - | 110 W/m² | - |
| 1778243986 | 4.44° C | 95% | 1008.7 hPa | 1.78 mm | - | 130 W/m² | - |
| 1778243685 | 4.44° C | 97% | 1008.6 hPa | 0 mm | - | 80 W/m² | - |
| 1778243380 | 3.89° C | 97% | 1008.6 hPa | 0 mm | - | 63 W/m² | - |
| 1778243077 | 3.89° C | 98% | 1008.5 hPa | 0 mm | - | 61 W/m² | - |
| 1778242774 | 4.44° C | 99% | 1008.5 hPa | 1.27 mm | - | 41 W/m² | - |
| 1778242473 | 4.44° C | 99% | 1008.5 hPa | 3.05 mm | - | 21 W/m² | - |
| 1778242170 | 5° C | 99% | 1008.5 hPa | 1.78 mm | - | 24 W/m² | - |
| 1778241868 | 5° C | 99% | 1008.3 hPa | 0 mm | - | 23 W/m² | - |
| 1778241565 | 4.44° C | 99% | 1008.5 hPa | 0 mm | - | 15 W/m² | - |
| 1778241263 | 4.44° C | 99% | 1008 hPa | 0 mm | - | 16 W/m² | - |
| 1778240959 | 4.44° C | 99% | 1008.1 hPa | 0 mm | - | 19 W/m² | - |
| 1778240656 | 4.44° C | 99% | 1007.7 hPa | 0 mm | - | 14 W/m² | - |
| 1778240352 | 4.44° C | 99% | 1007.4 hPa | 0 mm | - | 18 W/m² | - |
| 1778240051 | 4.44° C | 99% | 1007.6 hPa | 0 mm | - | 22 W/m² | - |
* Rain latest hour (hover to see other rain measurements)
** Current wind speed in m/s (hover to see current wind gust speed)